COSMOS 1275 DEB

Satellite information

Favourite Embed

Satellite Type and Status

DEBRISIN ORBIT

Key statistics

Satellite COSMOS 1275 DEB at a glance.

Uptime

16164

Days in orbit

Revolutions

≈ 14.3

Per day

Orbit

LEO

Low Earth Orbit

Inclination

82.9

Latest

Satellite identification and parameters

Extended collection of information and parameters for COSMOS 1275 DEB.

Object identification

Identified? True

Debris? True

Object name: COSMOS 1275 DEB

International designator: 1981-053JX

Object number (NORAD): 14925

Object ID (CCSDS): 14925

Country: COMMONWEALTH OF INDEPENDENT STATES (CIS)

Current information (Y/N): Y

RCS size: SMALL

Orbital parameters

Period: 100.538 minutes

Inclination: 82.8544 deg

SMA: 7162.197 km

Apoapsis: 793.276 km

Periapsis: 774.849 km

RAAN: 162.7194 deg

Eccentricy: 0.00128637

Argument of periapsis: 225.6197 deg

Mean anomaly: 134.3938 deg

Mean motion: 14.32297797 rev/day

Mean motion (dot): 0.00011811 rev/day2

B* drag term: 0.0043630385 1/REarth

Two-line elements (TLE)

Creation date: Sept. 3, 2025, 10:15 a.m.

Reference frame: TEME

Reference center: EARTH

Epoch: Sept. 3, 2025, 4:52 a.m. UTC

TLE line 0: 0 COSMOS 1275 DEB

TLE line 1: 1 14925U 81053JX 25246.20308008 .00011811 00000-0 43630-2 0 9998

TLE line 2: 2 14925 82.8544 162.7194 0012864 225.6197 134.3938 14.32297797239508

Live tracking on map

Real-time ground track for satellite COSMOS 1275 DEB.

In-orbit conjunctions

A list of the most updated potential collisions computed for object COSMOS 1275 DEB.

Target Orbit TCA Probability of collision Miss distance Type
ASUSAT SSO 2024-12-29 10:50:04 0.0001417343 775.0 (m) PAYLOAD
FENGYUN 1C DEB SSO 2024-06-27 20:29:04 0.0002044652 105.0 (m) DEBRIS

Associated space launch

Navigation satellite providing location information for the Tsiklon-B navigation system

COSMOS 1275 DEB was lifted into orbit during the mission ‘Kosmos-3M | Parus 27’, on board a Kosmos-3M space rocket.

The launch took place on June 4, 1981, 3:41 p.m. from 132/2.

For more information about the launch, click the button.

Launch to space Kosmos-3M | Parus 27
Kosmos-3M | Parus 27

Agency: N/A

Status: Launch Successful

Launch date: June 4, 1981, 3:41 p.m. UTC

Rocket: Kosmos-3M

Launch pad: 132/2

Location: Plesetsk Cosmodrome, Russian Federation

...

Latest news about this satellite

There are no fresh news available about this satellite. Check back as we update our databases every day.


Newsletter sign-up

Weekly statistics, charts and insights to help you stay on top of the space industry.